SKW1600 KCHA-KCLT

Flight info

Callsign SKW1600
Flight time 0h 39m
Altitude 27000
Route VXV COMDY FILPZ4
Aircraft CRJ7/M-SDFGIRWY/S

Departure

Time 2026-05-07 21:03
Airport Chattanooga Metropolitan Airport (Lovell Field) (KCHA)

Arrival

Time 2026-05-07 21:43
Airport Charlotte Douglas International Airport (KCLT)
Time Latitude Longitude Altitude Speed Heading
2026-05-07 20:48 35.03731 -85.19840 685 ft 0 kts 65°
2026-05-07 20:52 35.03730 -85.19840 689 ft 1 kts 65°
2026-05-07 20:52 35.03720 -85.19866 683 ft 4 kts 57°
2026-05-07 20:53 35.03702 -85.19890 686 ft 4 kts 38°
2026-05-07 20:53 35.03680 -85.19899 683 ft 4 kts 350°
2026-05-07 20:53 35.03675 -85.19898 687 ft 1 kts 342°
2026-05-07 20:57 35.03687 -85.19903 688 ft 4 kts 342°
2026-05-07 20:58 35.03721 -85.19922 687 ft 4 kts 297°
2026-05-07 20:58 35.03705 -85.19957 685 ft 7 kts 212°
2026-05-07 20:58 35.03658 -85.19974 685 ft 5 kts 184°
2026-05-07 20:58 35.03618 -85.19990 684 ft 8 kts 202°
2026-05-07 20:59 35.03549 -85.20021 686 ft 13 kts 197°
2026-05-07 20:59 35.03444 -85.20060 688 ft 16 kts 197°
2026-05-07 20:59 35.03338 -85.20099 689 ft 16 kts 197°
2026-05-07 20:59 35.03245 -85.20165 685 ft 16 kts 239°
2026-05-07 21:00 35.03180 -85.20273 688 ft 16 kts 210°
2026-05-07 21:00 35.03055 -85.20324 689 ft 20 kts 197°
2026-05-07 21:00 35.02920 -85.20373 686 ft 20 kts 197°
2026-05-07 21:00 35.02783 -85.20423 689 ft 21 kts 197°
2026-05-07 21:01 35.02643 -85.20474 686 ft 21 kts 197°
2026-05-07 21:01 35.02501 -85.20525 687 ft 21 kts 195°
2026-05-07 21:01 35.02368 -85.20572 685 ft 13 kts 195°
2026-05-07 21:01 35.02276 -85.20606 689 ft 14 kts 213°
2026-05-07 21:02 35.02261 -85.20694 688 ft 10 kts 290°
2026-05-07 21:02 35.02281 -85.20738 690 ft 5 kts 341°
2026-05-07 21:02 35.02341 -85.20724 690 ft 10 kts 17°
2026-05-07 21:02 35.02382 -85.20709 689 ft 17 kts 17°
2026-05-07 21:03 35.02751 -85.20578 686 ft 95 kts 17°
2026-05-07 21:03 35.03616 -85.20264 721 ft 154 kts 15°
2026-05-07 21:03 35.04680 -85.19889 1268 ft 166 kts 15°
2026-05-07 21:03 35.05831 -85.19484 2081 ft 175 kts 15°
2026-05-07 21:04 35.07028 -85.19050 2893 ft 184 kts 14°
2026-05-07 21:04 35.08271 -85.18590 3679 ft 190 kts 15°
2026-05-07 21:04 35.09562 -85.18103 4384 ft 200 kts 14°
2026-05-07 21:04 35.10981 -85.17568 4719 ft 233 kts 15°
2026-05-07 21:05 35.12695 -85.16933 4933 ft 272 kts 14°
2026-05-07 21:05 35.14477 -85.16260 6044 ft 268 kts 14°
2026-05-07 21:05 35.16207 -85.15339 6838 ft 277 kts 28°
2026-05-07 21:05 35.17749 -85.13865 7520 ft 289 kts 45°
2026-05-07 21:06 35.18964 -85.11857 8229 ft 298 kts 51°
2026-05-07 21:06 35.20124 -85.09725 8925 ft 304 kts 51°
2026-05-07 21:06 35.21312 -85.07542 9621 ft 311 kts 51°
2026-05-07 21:06 35.22539 -85.05338 10268 ft 317 kts 49°
2026-05-07 21:07 35.23838 -85.03123 10872 ft 324 kts 47°
2026-05-07 21:07 35.25188 -85.00889 11495 ft 329 kts 46°
2026-05-07 21:07 35.26561 -84.98610 12093 ft 338 kts 47°
2026-05-07 21:07 35.27971 -84.96254 12634 ft 348 kts 47°
2026-05-07 21:08 35.29419 -84.93827 13155 ft 359 kts 46°
2026-05-07 21:08 35.30913 -84.91314 13641 ft 371 kts 47°
2026-05-07 21:08 35.32434 -84.88756 14071 ft 382 kts 46°
2026-05-07 21:08 35.34017 -84.86085 14512 ft 392 kts 47°
2026-05-07 21:09 35.35643 -84.83357 14932 ft 402 kts 46°
2026-05-07 21:09 35.37306 -84.80549 15382 ft 411 kts 47°
2026-05-07 21:09 35.39001 -84.77682 15905 ft 420 kts 47°
2026-05-07 21:09 35.40721 -84.74760 16438 ft 425 kts 47°
2026-05-07 21:10 35.42460 -84.71811 16962 ft 429 kts 47°
2026-05-07 21:10 35.44222 -84.68838 17529 ft 433 kts 47°
2026-05-07 21:10 35.45998 -84.65816 17981 ft 439 kts 47°
2026-05-07 21:10 35.47802 -84.62753 18431 ft 445 kts 47°
2026-05-07 21:11 35.49625 -84.59663 18852 ft 450 kts 47°
2026-05-07 21:11 35.51466 -84.56534 19264 ft 455 kts 47°
2026-05-07 21:11 35.55213 -84.50165 20053 ft 465 kts 47°
2026-05-07 21:12 35.57115 -84.46927 20462 ft 470 kts 47°
2026-05-07 21:12 35.59036 -84.43647 20849 ft 475 kts 47°
2026-05-07 21:12 35.60986 -84.40339 21222 ft 479 kts 47°
2026-05-07 21:12 35.62940 -84.37000 21650 ft 482 kts 47°
2026-05-07 21:13 35.64869 -84.33680 22069 ft 485 kts 47°
2026-05-07 21:13 35.66873 -84.30250 22420 ft 489 kts 47°
2026-05-07 21:13 35.68847 -84.26886 22703 ft 494 kts 46°
2026-05-07 21:13 35.70888 -84.23451 23010 ft 499 kts 47°
2026-05-07 21:14 35.72961 -84.19927 23337 ft 504 kts 47°
2026-05-07 21:14 35.74989 -84.16452 23633 ft 508 kts 47°
2026-05-07 21:14 35.77053 -84.12891 23818 ft 515 kts 47°
2026-05-07 21:14 35.79161 -84.09261 23914 ft 524 kts 47°
2026-05-07 21:15 35.81298 -84.05573 23957 ft 534 kts 47°
2026-05-07 21:15 35.83467 -84.01813 23982 ft 542 kts 47°
2026-05-07 21:15 35.85662 -83.98011 23992 ft 545 kts 48°
2026-05-07 21:15 35.87862 -83.94201 24006 ft 547 kts 48°
2026-05-07 21:16 35.89809 -83.90124 24004 ft 561 kts 63°
2026-05-07 21:16 35.90840 -83.85460 23985 ft 567 kts 82°
2026-05-07 21:16 35.90849 -83.80610 23994 ft 563 kts 100°
2026-05-07 21:16 35.90283 -83.75849 24002 ft 563 kts 102°
2026-05-07 21:17 35.89825 -83.71010 24002 ft 571 kts 96°
2026-05-07 21:17 35.89714 -83.66099 24000 ft 575 kts 92°
2026-05-07 21:17 35.89320 -83.61282 23999 ft 569 kts 108°
2026-05-07 21:17 35.88128 -83.56680 23997 ft 560 kts 115°
2026-05-07 21:18 35.86933 -83.52116 23980 ft 561 kts 110°
2026-05-07 21:18 35.86062 -83.47404 23980 ft 565 kts 105°
2026-05-07 21:18 35.85337 -83.42647 23988 ft 565 kts 105°
2026-05-07 21:18 35.84587 -83.37884 23994 ft 565 kts 106°
2026-05-07 21:19 35.83741 -83.33158 23994 ft 565 kts 108°
2026-05-07 21:19 35.82857 -83.28441 23982 ft 565 kts 108°
2026-05-07 21:19 35.81965 -83.23711 23989 ft 566 kts 108°
2026-05-07 21:19 35.81095 -83.18978 23988 ft 567 kts 107°
2026-05-07 21:20 35.80247 -83.14229 23973 ft 567 kts 108°
2026-05-07 21:20 35.79384 -83.09483 23973 ft 567 kts 108°
2026-05-07 21:20 35.78516 -83.04741 23993 ft 568 kts 107°
2026-05-07 21:20 35.77651 -83.00002 23974 ft 568 kts 108°
2026-05-07 21:21 35.76788 -82.95245 23979 ft 569 kts 107°
2026-05-07 21:21 35.75915 -82.90500 23992 ft 569 kts 108°
2026-05-07 21:21 35.75044 -82.85744 24006 ft 570 kts 107°
2026-05-07 21:21 35.74181 -82.80968 24000 ft 571 kts 107°
2026-05-07 21:22 35.73319 -82.76194 23974 ft 572 kts 107°
2026-05-07 21:22 35.72449 -82.71476 23963 ft 572 kts 108°
2026-05-07 21:22 35.71498 -82.66736 23940 ft 570 kts 110°
2026-05-07 21:22 35.70430 -82.62043 23942 ft 569 kts 112°
2026-05-07 21:23 35.69313 -82.57369 23948 ft 569 kts 112°
2026-05-07 21:23 35.68199 -82.52703 23940 ft 569 kts 112°
2026-05-07 21:23 35.67120 -82.48012 23918 ft 567 kts 111°
2026-05-07 21:23 35.66067 -82.43415 23869 ft 553 kts 112°
2026-05-07 21:24 35.65023 -82.38890 23549 ft 548 kts 110°
2026-05-07 21:24 35.64025 -82.34375 23069 ft 545 kts 111°
2026-05-07 21:24 35.63004 -82.29922 22602 ft 537 kts 111°
2026-05-07 21:24 35.61986 -82.25535 22155 ft 531 kts 111°
2026-05-07 21:25 35.60984 -82.21195 21383 ft 527 kts 111°
2026-05-07 21:25 35.59988 -82.16899 20729 ft 518 kts 110°
2026-05-07 21:25 35.59006 -82.12655 19779 ft 510 kts 110°
2026-05-07 21:25 35.58042 -82.08518 18872 ft 497 kts 110°
2026-05-07 21:26 35.57040 -82.04580 18014 ft 481 kts 116°
2026-05-07 21:26 35.55745 -82.00866 17039 ft 466 kts 120°
2026-05-07 21:26 35.54383 -81.97308 16088 ft 455 kts 120°
2026-05-07 21:26 35.53056 -81.93827 15241 ft 444 kts 119°
2026-05-07 21:27 35.51804 -81.90422 14637 ft 428 kts 117°
2026-05-07 21:27 35.50627 -81.87142 14110 ft 410 kts 117°
2026-05-07 21:27 35.49481 -81.83947 13152 ft 407 kts 117°
2026-05-07 21:27 35.48365 -81.80796 12495 ft 396 kts 117°
2026-05-07 21:28 35.47291 -81.77794 12238 ft 372 kts 117°
2026-05-07 21:28 35.46253 -81.74978 12133 ft 358 kts 118°
2026-05-07 21:28 35.45253 -81.72288 12057 ft 346 kts 118°
2026-05-07 21:28 35.44270 -81.69609 11837 ft 344 kts 118°
2026-05-07 21:29 35.43354 -81.66900 11592 ft 344 kts 115°
2026-05-07 21:29 35.42529 -81.64156 11380 ft 342 kts 112°
2026-05-07 21:29 35.41785 -81.61388 11162 ft 341 kts 111°
2026-05-07 21:29 35.41062 -81.58633 10976 ft 339 kts 111°
2026-05-07 21:30 35.40332 -81.55896 10740 ft 336 kts 112°
2026-05-07 21:30 35.39575 -81.53190 10551 ft 334 kts 112°
2026-05-07 21:30 35.38816 -81.50505 10352 ft 332 kts 112°
2026-05-07 21:30 35.38061 -81.47835 10133 ft 331 kts 112°
2026-05-07 21:31 35.37306 -81.45177 10082 ft 330 kts 112°
2026-05-07 21:31 35.36556 -81.42529 10058 ft 331 kts 112°
2026-05-07 21:31 35.35793 -81.39833 9835 ft 337 kts 112°
2026-05-07 21:31 35.35034 -81.37153 9592 ft 329 kts 112°
2026-05-07 21:32 35.34287 -81.34536 9342 ft 323 kts 112°
2026-05-07 21:32 35.33562 -81.31991 8997 ft 320 kts 112°
2026-05-07 21:32 35.32838 -81.29422 8679 ft 318 kts 113°
2026-05-07 21:32 35.32076 -81.26902 8315 ft 314 kts 113°
2026-05-07 21:33 35.31332 -81.24392 7951 ft 311 kts 112°
2026-05-07 21:33 35.30603 -81.21910 7593 ft 308 kts 111°
2026-05-07 21:33 35.29905 -81.19438 7221 ft 306 kts 111°
2026-05-07 21:33 35.29211 -81.16991 6861 ft 302 kts 111°
2026-05-07 21:34 35.28522 -81.14574 6499 ft 299 kts 111°
2026-05-07 21:34 35.27842 -81.12192 6213 ft 292 kts 111°
2026-05-07 21:34 35.27161 -81.09885 6071 ft 285 kts 116°
2026-05-07 21:34 35.25974 -81.08077 6004 ft 274 kts 150°
2026-05-07 21:35 35.24266 -81.07170 5917 ft 268 kts 168°
2026-05-07 21:35 35.22415 -81.06748 5609 ft 273 kts 178°
2026-05-07 21:35 35.20495 -81.06588 5374 ft 277 kts 180°
2026-05-07 21:35 35.18586 -81.06480 4975 ft 275 kts 180°
2026-05-07 21:36 35.16672 -81.06365 4554 ft 275 kts 181°
2026-05-07 21:36 35.14777 -81.06252 4187 ft 273 kts 181°
2026-05-07 21:36 35.12885 -81.06116 3848 ft 270 kts 180°
2026-05-07 21:36 35.11003 -81.05958 3423 ft 270 kts 180°
2026-05-07 21:37 35.09151 -81.05801 3233 ft 263 kts 178°
2026-05-07 21:37 35.07362 -81.05598 3140 ft 254 kts 173°
2026-05-07 21:37 35.06241 -81.05258 3100 ft 249 kts 159°
2026-05-07 21:37 35.04996 -81.03939 3069 ft 233 kts 119°
2026-05-07 21:38 35.04711 -81.02118 3079 ft 212 kts 76°
2026-05-07 21:38 35.05339 -81.00003 3109 ft 194 kts 63°
2026-05-07 21:38 35.05821 -80.98536 3211 ft 181 kts 65°
2026-05-07 21:38 35.06301 -80.97089 3244 ft 186 kts 65°
2026-05-07 21:39 35.06650 -80.96121 3227 ft 187 kts 63°
2026-05-07 21:39 35.07459 -80.94873 3166 ft 185 kts 42°
2026-05-07 21:39 35.08340 -80.93739 3133 ft 183 kts 43°
2026-05-07 21:39 35.09226 -80.92631 3029 ft 179 kts 33°
2026-05-07 21:40 35.10685 -80.92313 3014 ft 157 kts 345°
2026-05-07 21:40 35.11396 -80.92440 2994 ft 156 kts 345°
2026-05-07 21:40 35.12469 -80.92656 2993 ft 155 kts 345°
2026-05-07 21:40 35.13539 -80.92891 2768 ft 154 kts 344°
2026-05-07 21:41 35.14563 -80.92997 2366 ft 147 kts 352°
2026-05-07 21:41 35.15584 -80.93069 2071 ft 144 kts 353°
2026-05-07 21:41 35.16563 -80.93118 1728 ft 136 kts 351°
2026-05-07 21:41 35.17524 -80.93200 1387 ft 142 kts 353°
2026-05-07 21:42 35.18502 -80.93274 1096 ft 139 kts 352°
2026-05-07 21:42 35.19473 -80.93357 878 ft 136 kts 349°
2026-05-07 21:42 35.20417 -80.93438 746 ft 127 kts 351°
2026-05-07 21:42 35.21143 -80.93510 733 ft 82 kts 355°
2026-05-07 21:43 35.21547 -80.93543 733 ft 27 kts 359°
2026-05-07 21:43 35.21679 -80.93553 733 ft 15 kts 344°
2026-05-07 21:43 35.21722 -80.93579 733 ft 4 kts 286°
2026-05-07 21:43 35.21712 -80.93627 733 ft 7 kts 232°